Weather History for Vidalia, GA

Change the Weather History Date:

Wednesday, November 21, 2012

  Actual Average (KAZE) Record (KAZE)
Temperature  
Mean Temperature 58 °F -  
Max Temperature 71 °F 62 °F 91 °F (2014)
Min Temperature 46 °F 47 °F 38 °F (2014)
Degree Days  
Heating Degree Days 6    
Growing Degree Days 8 (Base 50)    
Moisture  
Dew Point 45 °F    
Average Humidity 70    
Maximum Humidity 100    
Minimum Humidity 33    
Precipitation  
Precipitation 0.00 in - - ()
Sea Level Pressure  
Sea Level Pressure 30.11 in    
Wind  
Wind Speed 2 mph (North)    
Max Wind Speed 12 mph    
Max Gust Speed 16 mph    
Visibility 10 miles    
Events      
Averages and records for this station are not official NWS values.
T = Trace of Precipitation, MM = Missing Value Source: NWS Daily Summary

Daily Weather History Graph

Daily Weather History Graph

Search for Another Location

Airport:

Trip Planner

Search our weather history database for the weather conditions in past years. The results will help you decide how hot, cold, wet, or windy it might be!

Date:

Astronomy

Nov. 21, 2012 Rise Set
Actual Time 7:04 AM EST 5:26 PM EST
Civil Twilight 6:38 AM EST 5:52 PM EST
Nautical Twilight 6:08 AM EST 6:22 PM EST
Astronomical Twilight 5:38 AM EST 6:51 PM EST
Moon 1:22 PM EST (11/21) 12:43 AM EST (11/21)
Length of Visible Light 11h 14m
Length of Day
10h 22m
First Quarter, 61% of the Moon is Illuminated
Nov 21
First Quarter
Nov 28
Full
Dec 6
Last Quarter
Dec 13
New
Dec 20
First Quarter

Hourly Weather History & Observations

Time (EST) Temp. Dew Point Humidity Pressure Visibility Wind Dir Wind Speed Gust Speed Precip Events Conditions
12:15 AM 51.8 °F 50.0 °F 94% 30.09 in 10.0 mi Calm Calm - N/A   Clear
12:35 AM 51.8 °F 50.0 °F 94% 30.09 in 10.0 mi Calm Calm - N/A   Clear
12:55 AM 51.8 °F 50.0 °F 94% 30.09 in 10.0 mi Calm Calm - N/A   Clear
1:15 AM 50.0 °F 50.0 °F 100% 30.09 in 10.0 mi Calm Calm - N/A   Clear
1:35 AM 50.0 °F 48.2 °F 94% 30.08 in 10.0 mi Calm Calm - N/A   Clear
1:55 AM 50.0 °F 48.2 °F 94% 30.08 in 10.0 mi Calm Calm - N/A   Clear
2:15 AM 50.0 °F 48.2 °F 94% 30.08 in 10.0 mi Calm Calm - N/A   Clear
2:35 AM 50.0 °F 48.2 °F 94% 30.08 in 10.0 mi Calm Calm - N/A   Clear
2:55 AM 50.0 °F 50.0 °F 100% 30.07 in 10.0 mi Calm Calm - N/A   Clear
3:15 AM 50.0 °F 46.4 °F 87% 30.07 in 10.0 mi Calm Calm - N/A   Clear
3:35 AM 48.2 °F 46.4 °F 93% 30.07 in 10.0 mi Calm Calm - N/A   Clear
3:55 AM 50.0 °F 48.2 °F 94% 30.07 in 10.0 mi Calm Calm - N/A   Clear
4:15 AM 48.2 °F 46.4 °F 93% 30.07 in 7.0 mi Calm Calm - N/A   Clear
4:35 AM 48.2 °F 46.4 °F 93% 30.08 in 7.0 mi Calm Calm - N/A   Clear
4:55 AM 46.4 °F 46.4 °F 100% 30.08 in 7.0 mi Calm Calm - N/A   Clear
5:15 AM 46.4 °F 46.4 °F 100% 30.09 in 7.0 mi Calm Calm - N/A   Clear
5:35 AM 46.4 °F 46.4 °F 100% 30.09 in 7.0 mi Calm Calm - N/A   Clear
5:55 AM 46.4 °F 46.4 °F 100% 30.09 in 10.0 mi Calm Calm - N/A   Clear
6:15 AM 46.4 °F 46.4 °F 100% 30.09 in 7.0 mi Calm Calm - N/A   Clear
6:35 AM 46.4 °F 46.4 °F 100% 30.09 in 7.0 mi Calm Calm - N/A   Clear
6:55 AM 46.4 °F 44.6 °F 93% 30.10 in 7.0 mi Calm Calm - N/A   Clear
7:15 AM 46.4 °F 44.6 °F 93% 30.11 in 7.0 mi Calm Calm - N/A   Clear
7:35 AM 46.4 °F 44.6 °F 93% 30.12 in 7.0 mi Calm Calm - N/A   Clear
7:55 AM 50.0 °F 50.0 °F 100% 30.12 in 5.0 mi Calm Calm - N/A   Clear
8:15 AM 51.8 °F 50.0 °F 94% 30.12 in 10.0 mi Calm Calm - N/A   Clear
8:35 AM 53.6 °F 51.8 °F 94% 30.13 in 10.0 mi Calm Calm - N/A   Clear
8:55 AM 55.4 °F 51.8 °F 88% 30.13 in 10.0 mi Calm Calm - N/A   Clear
9:15 AM 57.2 °F 51.8 °F 82% 30.14 in 10.0 mi Calm Calm - N/A   Clear
9:55 AM 60.8 °F 51.8 °F 72% 30.15 in 10.0 mi NNE 4.6 mph - N/A   Clear
10:15 AM 62.6 °F 51.8 °F 68% 30.15 in 10.0 mi NNE 4.6 mph - N/A   Clear
10:35 AM 62.6 °F 50.0 °F 63% 30.15 in 10.0 mi North 4.6 mph - N/A   Clear
10:55 AM 64.4 °F 51.8 °F 64% 30.14 in 10.0 mi NNE 6.9 mph - N/A   Clear
11:15 AM 64.4 °F 50.0 °F 59% 30.14 in 10.0 mi NNE 4.6 mph - N/A   Clear
11:35 AM 68.0 °F 46.4 °F 46% 30.14 in 10.0 mi North 8.1 mph - N/A   Clear
11:55 AM 68.0 °F 50.0 °F 52% 30.13 in 10.0 mi NNE 8.1 mph - N/A   Clear
12:15 PM 68.0 °F 50.0 °F 52% 30.12 in 10.0 mi North 5.8 mph - N/A   Clear
12:55 PM 69.8 °F 46.4 °F 43% 30.11 in 10.0 mi NE 9.2 mph - N/A   Clear
1:15 PM 69.8 °F 46.4 °F 43% 30.10 in 10.0 mi North 9.2 mph - N/A   Clear
1:35 PM 69.8 °F 44.6 °F 40% 30.10 in 10.0 mi NNE 11.5 mph 16.1 mph N/A   Clear
1:55 PM 69.8 °F 42.8 °F 38% 30.09 in 10.0 mi North 6.9 mph - N/A   Clear
2:15 PM 69.8 °F 42.8 °F 38% 30.09 in 10.0 mi NNE 4.6 mph - N/A   Clear
2:35 PM 71.6 °F 41.0 °F 33% 30.08 in 10.0 mi North 5.8 mph - N/A   Clear
2:55 PM 71.6 °F 41.0 °F 33% 30.08 in 10.0 mi North 9.2 mph - N/A   Clear
3:15 PM 71.6 °F 41.0 °F 33% 30.08 in 10.0 mi North 8.1 mph - N/A   Clear
3:35 PM 71.6 °F 41.0 °F 33% 30.08 in 10.0 mi North 10.4 mph - N/A   Clear
3:55 PM 69.8 °F 41.0 °F 35% 30.09 in 10.0 mi North 6.9 mph - N/A   Clear
4:15 PM 69.8 °F 39.2 °F 33% 30.09 in 10.0 mi NNE 8.1 mph - N/A   Clear
4:35 PM 68.0 °F 37.4 °F 33% 30.09 in 10.0 mi North 6.9 mph - N/A   Clear
4:55 PM 68.0 °F 39.2 °F 35% 30.10 in 10.0 mi North 4.6 mph - N/A   Clear
5:15 PM 62.6 °F 41.0 °F 45% 30.09 in 10.0 mi Calm Calm - N/A   Clear
5:35 PM 62.6 °F 41.0 °F 45% 30.10 in 10.0 mi Calm Calm - N/A   Clear
5:55 PM 59.0 °F 42.8 °F 55% 30.10 in 10.0 mi North 3.5 mph - N/A   Clear
6:15 PM 60.8 °F 42.8 °F 52% 30.11 in 10.0 mi Calm Calm - N/A   Clear
6:35 PM 57.2 °F 42.8 °F 59% 30.11 in 10.0 mi Calm Calm - N/A   Clear
6:55 PM 55.4 °F 44.6 °F 67% 30.12 in 10.0 mi Calm Calm - N/A   Clear
7:15 PM 55.4 °F 42.8 °F 63% 30.12 in 10.0 mi North 4.6 mph - N/A   Clear
7:55 PM 55.4 °F 42.8 °F 63% 30.12 in 10.0 mi North 3.5 mph - N/A   Clear
8:15 PM 55.4 °F 41.0 °F 58% 30.13 in 10.0 mi North 4.6 mph - N/A   Clear
8:55 PM 53.6 °F 41.0 °F 62% 30.13 in 10.0 mi North 3.5 mph - N/A   Clear
9:15 PM 53.6 °F 41.0 °F 62% 30.14 in 10.0 mi North 4.6 mph - N/A   Clear
9:35 PM 51.8 °F 42.8 °F 71% 30.14 in 10.0 mi Calm Calm - N/A   Clear
9:55 PM 50.0 °F 42.8 °F 76% 30.15 in 10.0 mi North 4.6 mph - N/A   Clear
10:15 PM 53.6 °F 41.0 °F 62% 30.15 in 10.0 mi North 5.8 mph - N/A   Clear
10:35 PM 53.6 °F 41.0 °F 62% 30.15 in 10.0 mi North 3.5 mph - N/A   Clear
10:55 PM 53.6 °F 41.0 °F 62% 30.15 in 10.0 mi North 4.6 mph - N/A   Clear
11:15 PM 51.8 °F 41.0 °F 67% 30.15 in 10.0 mi North 4.6 mph - N/A   Clear
11:35 PM 51.8 °F 41.0 °F 67% 30.15 in 10.0 mi NNE 4.6 mph - N/A   Clear
11:55 PM 53.6 °F 41.0 °F 62% 30.15 in 10.0 mi NE 5.8 mph - N/A   Clear